Terug naar catalogus

FENGYUN 1C DEB

ActiefSSO
NORAD 31085·DEBRIS·🇨🇳 China

Gelanceerd May 10, 1999 vanaf Taiyuan Satellite Launch Center

Loading…

Volgende Passages (komende 24 uur)

TLE

VersSource: Space-Track

Epoch: Sep 14, 2026, 01:44 UTC

1 31085U 99025BGF 26257.07227388  .00000101  00000-0  55027-4 0  9996
2 31085  98.9592 111.5460 0085928 297.4220 216.0124 14.30450864 16522

Volg FENGYUN 1C DEB in realtime met AllMySat

Download on the App Store